Time,TemperatureF,DewpointF,PressureIn,WindDirection,WindDirectionDegrees,WindSpeedMPH,WindSpeedGustMPH,Humidity,HourlyPrecipIn,Conditions,Clouds,dailyrainin,SoftwareType,DateUTC
2013-06-03 00:01:00,62.0,39.0,-100.00,WNW,295,7.0,12.0,43,0.00,,,0.00,,2013-06-03 00:01:00,
2013-06-03 00:11:00,62.0,39.0,-100.00,NW,315,6.0,10.0,43,0.00,,,0.00,,2013-06-03 00:11:00,
2013-06-03 00:21:00,63.0,39.0,-100.00,NW,315,9.0,11.0,42,0.00,,,0.00,,2013-06-03 00:21:00,
2013-06-03 00:32:00,62.0,39.0,-100.00,NW,305,7.0,10.0,43,0.00,,,0.00,,2013-06-03 00:32:00,
2013-06-03 00:42:00,62.0,39.0,-100.00,NW,305,6.0,10.0,43,0.00,,,0.00,,2013-06-03 00:42:00,
2013-06-03 00:51:00,62.0,39.0,-100.00,NNW,330,5.0,7.0,43,0.00,,,0.00,,2013-06-03 00:51:00,
2013-06-03 01:01:00,62.0,39.0,-100.00,NNW,330,4.0,8.0,42,0.00,,,0.00,,2013-06-03 01:01:00,
2013-06-03 01:11:00,61.0,39.0,-100.00,NW,320,4.0,8.0,43,0.00,,,0.00,,2013-06-03 01:11:00,
2013-06-03 01:21:00,61.0,39.0,-100.00,NW,315,6.0,7.0,43,0.00,,,0.00,,2013-06-03 01:21:00,
2013-06-03 01:32:00,61.0,39.0,-100.00,WNW,300,4.0,7.0,44,0.00,,,0.00,,2013-06-03 01:32:00,
2013-06-03 01:42:00,61.0,39.0,-100.00,NW,310,6.0,7.0,44,0.00,,,0.00,,2013-06-03 01:42:00,
2013-06-03 01:52:00,60.0,39.0,-100.00,WNW,300,4.0,7.0,45,0.00,,,0.00,,2013-06-03 01:52:00,
2013-06-03 02:02:00,60.0,39.0,-100.00,NW,305,4.0,7.0,46,0.00,,,0.00,,2013-06-03 02:02:00,
2013-06-03 02:12:00,60.0,39.0,-100.00,WNW,300,4.0,5.0,46,0.00,,,0.00,,2013-06-03 02:12:00,
2013-06-03 02:22:00,59.0,39.0,-100.00,WNW,295,4.0,6.0,47,0.00,,,0.00,,2013-06-03 02:22:00,
2013-06-03 02:32:00,58.0,39.0,-100.00,WNW,300,4.0,4.0,48,0.00,,,0.00,,2013-06-03 02:32:00,
2013-06-03 02:42:00,58.0,39.0,-100.00,NW,305,4.0,6.0,49,0.00,,,0.00,,2013-06-03 02:42:00,
2013-06-03 02:52:00,58.0,39.0,-100.00,NW,310,3.0,5.0,50,0.00,,,0.00,,2013-06-03 02:52:00,
2013-06-03 03:02:00,57.0,39.0,-100.00,NW,320,3.0,5.0,50,0.00,,,0.00,,2013-06-03 03:02:00,
2013-06-03 03:12:00,56.0,39.0,-100.00,NW,315,2.0,4.0,52,0.00,,,0.00,,2013-06-03 03:12:00,
2013-06-03 03:22:00,56.0,39.0,-100.00,NW,310,4.0,4.0,53,0.00,,,0.00,,2013-06-03 03:22:00,
2013-06-03 03:33:00,56.0,39.0,-100.00,North,350,2.0,4.0,54,0.00,,,0.00,,2013-06-03 03:33:00,
2013-06-03 03:43:00,55.0,39.0,-100.00,North,0,2.0,3.0,57,0.00,,,0.00,,2013-06-03 03:43:00,
2013-06-03 03:53:00,54.0,41.0,-100.00,North,0,2.0,3.0,58,0.00,,,0.00,,2013-06-03 03:53:00,
2013-06-03 04:03:00,54.0,41.0,-100.00,NNW,335,2.0,3.0,59,0.00,,,0.00,,2013-06-03 04:03:00,
2013-06-03 04:12:00,54.0,41.0,-100.00,NW,325,2.0,2.0,60,0.00,,,0.00,,2013-06-03 04:12:00,
2013-06-03 04:23:00,53.0,41.0,-100.00,NNW,335,1.0,2.0,63,0.00,,,0.00,,2013-06-03 04:23:00,
2013-06-03 04:33:00,51.0,41.0,-100.00,WNW,295,1.0,1.0,66,0.00,,,0.00,,2013-06-03 04:33:00,
2013-06-03 04:42:00,51.0,43.0,-100.00,WNW,290,0.0,1.0,71,0.00,,,0.00,,2013-06-03 04:42:00,
2013-06-03 04:52:00,50.0,43.0,-100.00,WNW,300,1.0,1.0,74,0.00,,,0.00,,2013-06-03 04:52:00,
2013-06-03 05:02:00,49.0,43.0,-100.00,NW,315,0.0,1.0,77,0.00,,,0.00,,2013-06-03 05:02:00,
2013-06-03 05:12:00,49.0,43.0,-100.00,NW,320,1.0,2.0,79,0.00,,,0.00,,2013-06-03 05:12:00,
2013-06-03 05:22:00,49.0,45.0,-100.00,NNE,15,1.0,2.0,81,0.00,,,0.00,,2013-06-03 05:22:00,
2013-06-03 05:32:00,49.0,45.0,-100.00,NNW,345,2.0,2.0,82,0.00,,,0.00,,2013-06-03 05:32:00,
2013-06-03 05:42:00,48.0,43.0,-100.00,NW,320,1.0,2.0,83,0.00,,,0.00,,2013-06-03 05:42:00,
2013-06-03 05:52:00,48.0,45.0,-100.00,NNW,335,1.0,2.0,84,0.00,,,0.00,,2013-06-03 05:52:00,
2013-06-03 06:02:00,48.0,45.0,-100.00,NNW,330,1.0,1.0,85,0.00,,,0.00,,2013-06-03 06:02:00,
2013-06-03 06:12:00,48.0,45.0,-100.00,NNW,335,1.0,1.0,86,0.00,,,0.00,,2013-06-03 06:12:00,
2013-06-03 06:22:00,47.0,45.0,-100.00,NNW,345,0.0,1.0,88,0.00,,,0.00,,2013-06-03 06:22:00,
2013-06-03 06:32:00,47.0,45.0,-100.00,West,260,0.0,1.0,89,0.00,,,0.00,,2013-06-03 06:32:00,
2013-06-03 06:42:00,46.0,45.0,-100.00,West,260,0.0,0.0,90,0.00,,,0.00,,2013-06-03 06:42:00,
2013-06-03 06:52:00,46.0,45.0,-100.00,West,260,0.0,0.0,91,0.00,,,0.00,,2013-06-03 06:52:00,
2013-06-03 07:02:00,45.0,43.0,-100.00,WSW,245,1.0,1.0,91,0.00,,,0.00,,2013-06-03 07:02:00,
2013-06-03 07:12:00,45.0,43.0,-100.00,WSW,245,2.0,2.0,92,0.00,,,0.00,,2013-06-03 07:12:00,
2013-06-03 07:22:00,45.0,43.0,-100.00,WSW,245,2.0,2.0,93,0.00,,,0.00,,2013-06-03 07:22:00,
2013-06-03 07:32:00,45.0,43.0,-100.00,WSW,245,1.0,2.0,94,0.00,,,0.00,,2013-06-03 07:32:00,
2013-06-03 07:42:00,45.0,43.0,-100.00,SW,235,1.0,1.0,95,0.00,,,0.00,,2013-06-03 07:42:00,
2013-06-03 07:52:00,44.0,43.0,-100.00,WSW,250,0.0,1.0,95,0.00,,,0.00,,2013-06-03 07:52:00,
2013-06-03 08:02:00,44.0,43.0,-100.00,SW,235,1.0,1.0,96,0.00,,,0.00,,2013-06-03 08:02:00,
2013-06-03 08:12:00,44.0,43.0,-100.00,SW,235,1.0,1.0,96,0.00,,,0.00,,2013-06-03 08:12:00,
2013-06-03 08:22:00,44.0,43.0,-100.00,WSW,240,0.0,1.0,96,0.00,,,0.00,,2013-06-03 08:22:00,
2013-06-03 08:32:00,44.0,43.0,-100.00,WSW,240,0.0,0.0,96,0.00,,,0.00,,2013-06-03 08:32:00,
2013-06-03 08:42:00,43.0,43.0,-100.00,ENE,65,0.0,1.0,96,0.00,,,0.00,,2013-06-03 08:42:00,
2013-06-03 08:52:00,43.0,43.0,-100.00,NNE,25,1.0,1.0,96,0.00,,,0.00,,2013-06-03 08:52:00,
2013-06-03 09:02:00,43.0,43.0,-100.00,NNW,340,1.0,1.0,97,0.00,,,0.00,,2013-06-03 09:02:00,
2013-06-03 09:12:00,43.0,43.0,-100.00,NW,325,1.0,1.0,97,0.00,,,0.00,,2013-06-03 09:12:00,
2013-06-03 09:33:00,42.0,41.0,-100.00,NW,315,0.0,1.0,97,0.00,,,0.00,,2013-06-03 09:33:00,
2013-06-03 09:52:00,42.0,41.0,-100.00,NW,320,1.0,1.0,97,0.00,,,0.00,,2013-06-03 09:52:00,
2013-06-03 10:03:00,42.0,41.0,-100.00,North,355,0.0,1.0,98,0.00,,,0.00,,2013-06-03 10:03:00,
2013-06-03 10:22:00,43.0,43.0,-100.00,NE,35,1.0,2.0,98,0.00,,,0.00,,2013-06-03 10:22:00,
2013-06-03 10:52:00,43.0,43.0,-100.00,North,0,2.0,3.0,98,0.00,,,0.00,,2013-06-03 10:52:00,
2013-06-03 11:12:00,42.0,41.0,-100.00,NE,45,0.0,0.0,98,0.00,,,0.00,,2013-06-03 11:12:00,
2013-06-03 11:32:00,43.0,43.0,-100.00,WSW,245,1.0,1.0,99,0.00,,,0.00,,2013-06-03 11:32:00,
2013-06-03 11:42:00,44.0,43.0,-100.00,SW,225,2.0,2.0,99,0.00,,,0.00,,2013-06-03 11:42:00,
2013-06-03 11:52:00,45.0,45.0,-100.00,SW,215,1.0,1.0,99,0.00,,,0.00,,2013-06-03 11:52:00,
2013-06-03 12:02:00,46.0,46.0,-100.00,SW,215,0.0,1.0,99,0.00,,,0.00,,2013-06-03 12:02:00,
2013-06-03 12:12:00,47.0,46.0,-100.00,NE,55,1.0,2.0,99,0.00,,,0.00,,2013-06-03 12:12:00,
2013-06-03 12:22:00,49.0,48.0,-100.00,SSE,160,0.0,1.0,99,0.00,,,0.00,,2013-06-03 12:22:00,
2013-06-03 12:32:00,50.0,50.0,-100.00,South,185,1.0,1.0,98,0.00,,,0.00,,2013-06-03 12:32:00,
2013-06-03 12:42:00,53.0,52.0,-100.00,SSE,155,1.0,2.0,98,0.00,,,0.00,,2013-06-03 12:42:00,
2013-06-03 12:52:00,52.0,48.0,-100.00,ESE,110,3.0,6.0,88,0.00,,,0.00,,2013-06-03 12:52:00,
2013-06-03 13:02:00,53.0,46.0,-100.00,SE,125,4.0,6.0,78,0.00,,,0.00,,2013-06-03 13:02:00,
2013-06-03 13:12:00,54.0,45.0,-100.00,SE,130,4.0,7.0,71,0.00,,,0.00,,2013-06-03 13:12:00,
2013-06-03 13:22:00,55.0,45.0,-100.00,ESE,115,4.0,8.0,68,0.00,,,0.00,,2013-06-03 13:22:00,
2013-06-03 13:32:00,56.0,45.0,-100.00,SE,135,5.0,7.0,63,0.00,,,0.00,,2013-06-03 13:32:00,
2013-06-03 13:42:00,57.0,45.0,-100.00,SSE,160,4.0,7.0,61,0.00,,,0.00,,2013-06-03 13:42:00,
2013-06-03 13:52:00,57.0,43.0,-100.00,SE,125,7.0,10.0,57,0.00,,,0.00,,2013-06-03 13:52:00,
2013-06-03 14:02:00,58.0,43.0,-100.00,SSE,160,6.0,9.0,55,0.00,,,0.00,,2013-06-03 14:02:00,
2013-06-03 14:12:00,59.0,43.0,-100.00,SE,140,6.0,8.0,54,0.00,,,0.00,,2013-06-03 14:12:00,
2013-06-03 14:22:00,60.0,43.0,-100.00,ESE,110,6.0,9.0,52,0.00,,,0.00,,2013-06-03 14:22:00,
2013-06-03 14:32:00,61.0,43.0,-100.00,SSE,150,2.0,7.0,51,0.00,,,0.00,,2013-06-03 14:32:00,
2013-06-03 14:42:00,61.0,43.0,-100.00,ESE,110,6.0,8.0,52,0.00,,,0.00,,2013-06-03 14:42:00,
2013-06-03 14:52:00,62.0,43.0,-100.00,ESE,105,6.0,8.0,50,0.00,,,0.00,,2013-06-03 14:52:00,
2013-06-03 15:02:00,63.0,43.0,-100.00,East,100,5.0,7.0,48,0.00,,,0.00,,2013-06-03 15:02:00,
2013-06-03 15:12:00,63.0,43.0,-100.00,SE,125,5.0,9.0,45,0.00,,,0.00,,2013-06-03 15:12:00,
2013-06-03 15:22:00,64.0,43.0,-100.00,ESE,110,6.0,9.0,44,0.00,,,0.00,,2013-06-03 15:22:00,
2013-06-03 15:33:00,64.0,41.0,-100.00,SSE,165,7.0,11.0,42,0.00,,,0.00,,2013-06-03 15:33:00,
2013-06-03 15:43:00,63.0,39.0,-100.00,South,170,11.0,12.0,39,0.00,,,0.00,,2013-06-03 15:43:00,
2013-06-03 15:53:00,64.0,37.0,-100.00,SSE,160,6.0,12.0,38,0.00,,,0.00,,2013-06-03 15:53:00,
2013-06-03 16:03:00,65.0,37.0,-100.00,SE,130,6.0,9.0,37,0.00,,,0.00,,2013-06-03 16:03:00,
2013-06-03 16:12:00,64.0,37.0,-100.00,SSE,155,8.0,10.0,37,0.00,,,0.00,,2013-06-03 16:12:00,
2013-06-03 16:23:00,66.0,39.0,-100.00,South,190,9.0,11.0,37,0.00,,,0.00,,2013-06-03 16:23:00,
2013-06-03 16:33:00,66.0,39.0,-100.00,SSW,205,10.0,13.0,36,0.00,,,0.00,,2013-06-03 16:33:00,
2013-06-03 16:42:00,69.0,39.0,-100.00,SW,220,7.0,9.0,34,0.00,,,0.00,,2013-06-03 16:42:00,
2013-06-03 16:53:00,67.0,39.0,-100.00,ESE,115,5.0,7.0,35,0.00,,,0.00,,2013-06-03 16:53:00,
2013-06-03 17:02:00,66.0,39.0,-100.00,SE,125,5.0,9.0,37,0.00,,,0.00,,2013-06-03 17:02:00,
2013-06-03 17:12:00,64.0,37.0,-100.00,East,85,5.0,11.0,37,0.00,,,0.00,,2013-06-03 17:12:00,
2013-06-03 17:22:00,64.0,37.0,-100.00,East,85,6.0,11.0,37,0.00,,,0.00,,2013-06-03 17:22:00,
2013-06-03 17:33:00,64.0,39.0,-100.00,ESE,120,7.0,11.0,38,0.00,,,0.00,,2013-06-03 17:33:00,
2013-06-03 17:42:00,64.0,39.0,-100.00,East,100,7.0,10.0,39,0.00,,,0.00,,2013-06-03 17:42:00,
2013-06-03 17:52:00,64.0,39.0,-100.00,East,90,4.0,11.0,39,0.00,,,0.00,,2013-06-03 17:52:00,
2013-06-03 18:02:00,64.0,39.0,-100.00,ENE,75,6.0,10.0,39,0.00,,,0.00,,2013-06-03 18:02:00,
2013-06-03 18:12:00,64.0,39.0,-100.00,SE,135,5.0,10.0,39,0.00,,,0.00,,2013-06-03 18:12:00,
2013-06-03 18:22:00,64.0,39.0,-100.00,SE,135,6.0,9.0,39,0.00,,,0.00,,2013-06-03 18:22:00,
2013-06-03 18:32:00,63.0,39.0,-100.00,SE,130,6.0,8.0,40,0.00,,,0.00,,2013-06-03 18:32:00,
2013-06-03 18:42:00,64.0,39.0,-100.00,ESE,120,6.0,7.0,40,0.00,,,0.00,,2013-06-03 18:42:00,
2013-06-03 18:52:00,65.0,41.0,-100.00,ESE,105,7.0,9.0,39,0.00,,,0.00,,2013-06-03 18:52:00,
2013-06-03 19:03:00,64.0,39.0,-100.00,East,100,9.0,11.0,40,0.00,,,0.00,,2013-06-03 19:03:00,
2013-06-03 19:12:00,64.0,39.0,-100.00,East,100,6.0,11.0,39,0.00,,,0.00,,2013-06-03 19:12:00,
2013-06-03 19:22:00,64.0,39.0,-100.00,East,95,10.0,13.0,40,0.00,,,0.00,,2013-06-03 19:22:00,
2013-06-03 19:32:00,64.0,39.0,-100.00,ESE,110,7.0,12.0,40,0.00,,,0.00,,2013-06-03 19:32:00,
2013-06-03 19:42:00,63.0,39.0,-100.00,ESE,115,6.0,12.0,40,0.00,,,0.00,,2013-06-03 19:42:00,
2013-06-03 19:52:00,63.0,39.0,-100.00,East,95,6.0,12.0,41,0.00,,,0.00,,2013-06-03 19:52:00,
2013-06-03 20:02:00,63.0,39.0,-100.00,East,90,4.0,8.0,41,0.00,,,0.00,,2013-06-03 20:02:00,
2013-06-03 20:12:00,63.0,39.0,-100.00,East,95,5.0,7.0,41,0.00,,,0.00,,2013-06-03 20:12:00,
2013-06-03 20:22:00,63.0,41.0,-100.00,ESE,105,6.0,7.0,43,0.00,,,0.00,,2013-06-03 20:22:00,
2013-06-03 20:32:00,63.0,41.0,-100.00,ESE,115,7.0,9.0,43,0.00,,,0.00,,2013-06-03 20:32:00,
2013-06-03 20:42:00,62.0,41.0,-100.00,ESE,120,6.0,10.0,44,0.00,,,0.00,,2013-06-03 20:42:00,
2013-06-03 20:52:00,62.0,41.0,-100.00,SE,125,7.0,11.0,45,0.00,,,0.00,,2013-06-03 20:52:00,
2013-06-03 21:02:00,62.0,41.0,-100.00,ESE,110,7.0,12.0,47,0.00,,,0.00,,2013-06-03 21:02:00,
2013-06-03 21:12:00,61.0,43.0,-100.00,ESE,120,6.0,11.0,50,0.00,,,0.00,,2013-06-03 21:12:00,
2013-06-03 21:22:00,61.0,43.0,-100.00,SE,130,9.0,15.0,50,0.00,,,0.00,,2013-06-03 21:22:00,
2013-06-03 21:33:00,61.0,43.0,-100.00,ESE,120,7.0,12.0,50,0.00,,,0.00,,2013-06-03 21:33:00,
2013-06-03 21:43:00,62.0,43.0,-100.00,East,100,7.0,10.0,50,0.00,,,0.00,,2013-06-03 21:43:00,
2013-06-03 21:52:00,62.0,43.0,-100.00,East,100,7.0,11.0,49,0.00,,,0.00,,2013-06-03 21:52:00,
2013-06-03 22:03:00,62.0,43.0,-100.00,East,95,7.0,12.0,48,0.00,,,0.00,,2013-06-03 22:03:00,
2013-06-03 22:12:00,62.0,43.0,-100.00,ESE,105,7.0,11.0,48,0.00,,,0.00,,2013-06-03 22:12:00,
2013-06-03 22:22:00,63.0,43.0,-100.00,East,90,8.0,12.0,48,0.00,,,0.00,,2013-06-03 22:22:00,
2013-06-03 22:32:00,64.0,45.0,-100.00,East,100,9.0,12.0,47,0.00,,,0.00,,2013-06-03 22:32:00,
2013-06-03 22:42:00,64.0,43.0,-100.00,ESE,115,10.0,15.0,46,0.00,,,0.00,,2013-06-03 22:42:00,
2013-06-03 22:52:00,64.0,43.0,-100.00,SE,125,11.0,14.0,45,0.00,,,0.00,,2013-06-03 22:52:00,
2013-06-03 23:02:00,63.0,43.0,-100.00,ESE,120,9.0,17.0,45,0.00,,,0.00,,2013-06-03 23:02:00,
2013-06-03 23:12:00,63.0,43.0,-100.00,ESE,120,10.0,16.0,45,0.00,,,0.00,,2013-06-03 23:12:00,
2013-06-03 23:22:00,63.0,43.0,-100.00,SE,130,7.0,14.0,45,0.00,,,0.00,,2013-06-03 23:22:00,
2013-06-03 23:32:00,63.0,41.0,-100.00,SE,140,9.0,13.0,45,0.00,,,0.00,,2013-06-03 23:32:00,
2013-06-03 23:42:00,63.0,41.0,-100.00,SE,125,7.0,16.0,45,0.00,,,0.00,,2013-06-03 23:42:00,
2013-06-03 23:52:00,62.0,43.0,-100.00,SE,125,5.0,11.0,47,0.00,,,0.00,,2013-06-03 23:52:00,